Location: Walsall
(52.5862°N, 1.9829°W)
Time: 01:43:01
(UTC+01:00)

X-37B - Pass Details

Date: 30 June 2021
Orbit: 383 x 392 km, 45.0° (Epoch: 01 July)

Event Time Altitude Azimuth Distance (km) Brightness Sun altitude
Rises 22:41:54 0° 257° (WSW) 2,259 4.8 -7.6°
Reaches altitude 10° 22:44:25 10° 237° (WSW) 1,403 3.4 -7.8°
Maximum altitude 22:46:35 17° 193° (SSW) 1,055 2.4 -8.0°
Enters shadow 22:48:26 11° 154° (SSE) 1,320 2.6 -8.1°
